Find Kosmos-2448

NORAD ID: 33468 Int'l Des: 2008-067 Owner: KVR/IACG Country: RU Constellation: GLONASS operational
MEOCIRCULAR

Current View

Loading 3D Globe...

About Kosmos-2448

Description loading...

Upcoming Passes

Passes for default location (London). Set your location on the main map for personalized predictions.

Altitude History

Loading altitude history...

Two-Line Element Set

1 33468U 08067C 26150.25879955 -.00000056 00000-0 00000+0 0 9990
2 33468 64.8050 69.8940 0002045 238.0616 121.9183 2.13116834135656
Epoch: May 30, 2026 • Age: 20 hours

Current Status

Altitude 19148.1 km
Velocity 3.95 km/s
Sub-Earth Point -64.53°S, 54.55°E
Launch Date Dec 25, 2008
Age 17.4 years
Type other

Technical Details

Classification Payload
Mass 1450.00 kg
Dry Mass 1200.00 kg
Total Mass 1450.00 kg
Length 4.00 m
Diameter 1.50 m
Span 7.80 m
Shape Cyl + Ant + 2 Pan
Manufacturer RESH
Bus Type Uragan
Phase Status In Orbit
Owner/State KVR/IACG/RU

Most Searched